Year,Month,Day,Hour,Minute,Value (Times are PST for temperature in C)
2015,05,20,00,00,18.60
2015,05,20,00,01,18.60
2015,05,20,00,02,18.60
2015,05,20,00,03,18.50
2015,05,20,00,04,18.50
2015,05,20,00,05,18.50
2015,05,20,00,06,18.40
2015,05,20,00,07,18.40
2015,05,20,00,08,18.40
2015,05,20,00,09,18.40
2015,05,20,00,10,18.30
2015,05,20,00,11,18.30
2015,05,20,00,12,18.10
2015,05,20,00,13,18.00
2015,05,20,00,14,17.80
2015,05,20,00,15,17.70
2015,05,20,00,16,17.50
2015,05,20,00,17,17.30
2015,05,20,00,18,17.20
2015,05,20,00,19,17.10
2015,05,20,00,20,17.00
2015,05,20,00,21,16.90
2015,05,20,00,22,16.80
2015,05,20,00,23,16.80
2015,05,20,00,24,16.70
2015,05,20,00,25,16.70
2015,05,20,00,26,16.70
2015,05,20,00,27,16.70
2015,05,20,00,28,16.60
2015,05,20,00,29,16.60
2015,05,20,00,30,16.70
2015,05,20,00,31,16.70
2015,05,20,00,32,16.70
2015,05,20,00,33,16.70
2015,05,20,00,34,16.80
2015,05,20,00,35,16.80
2015,05,20,00,36,16.80
2015,05,20,00,37,16.80
2015,05,20,00,38,16.70
2015,05,20,00,39,16.70
2015,05,20,00,40,16.70
2015,05,20,00,41,16.60
2015,05,20,00,42,16.60
2015,05,20,00,43,16.60
2015,05,20,00,44,16.60
2015,05,20,00,45,16.60
2015,05,20,00,46,16.50
2015,05,20,00,47,16.50
2015,05,20,00,48,16.50
2015,05,20,00,49,16.50
2015,05,20,00,50,16.40
2015,05,20,00,51,16.40
2015,05,20,00,52,16.40
2015,05,20,00,53,16.30
2015,05,20,00,54,16.30
2015,05,20,00,55,16.30
2015,05,20,00,56,16.20
2015,05,20,00,57,16.10
2015,05,20,00,58,16.00
2015,05,20,00,59,15.90
2015,05,20,01,00,15.90
2015,05,20,01,01,15.80
2015,05,20,01,02,15.70
2015,05,20,01,03,15.60
2015,05,20,01,04,15.50
2015,05,20,01,05,15.40
2015,05,20,01,06,15.30
2015,05,20,01,07,15.30
2015,05,20,01,08,15.20
2015,05,20,01,09,15.20
2015,05,20,01,10,15.10
2015,05,20,01,11,15.10
2015,05,20,01,12,15.00
2015,05,20,01,13,15.00
2015,05,20,01,14,14.90
2015,05,20,01,15,14.90
2015,05,20,01,16,14.90
2015,05,20,01,17,14.90
2015,05,20,01,18,14.90
2015,05,20,01,19,14.90
2015,05,20,01,20,14.90
2015,05,20,01,21,14.90
2015,05,20,01,22,14.90
2015,05,20,01,23,14.90
2015,05,20,01,24,14.90
2015,05,20,01,25,15.00
2015,05,20,01,26,15.10
2015,05,20,01,27,15.10
2015,05,20,01,28,15.10
2015,05,20,01,29,15.10
2015,05,20,01,30,15.10
2015,05,20,01,31,15.10
2015,05,20,01,32,15.10
2015,05,20,01,33,15.20
2015,05,20,01,34,15.20
2015,05,20,01,35,15.20
2015,05,20,01,36,15.10
2015,05,20,01,37,15.10
2015,05,20,01,38,15.10
2015,05,20,01,39,15.10
2015,05,20,01,40,15.00
2015,05,20,01,41,14.90
2015,05,20,01,42,14.80
2015,05,20,01,43,14.80
2015,05,20,01,44,14.80
2015,05,20,01,45,14.70
2015,05,20,01,46,14.70
2015,05,20,01,47,14.70
2015,05,20,01,48,14.70
2015,05,20,01,49,14.60
2015,05,20,01,50,14.60
2015,05,20,01,51,14.50
2015,05,20,01,52,14.50
2015,05,20,01,53,14.40
2015,05,20,01,54,14.40
2015,05,20,01,55,14.30
2015,05,20,01,56,14.20
2015,05,20,01,57,14.20
2015,05,20,01,58,14.10
2015,05,20,01,59,14.10
2015,05,20,02,00,14.00
2015,05,20,02,01,14.00
2015,05,20,02,02,13.90
2015,05,20,02,03,13.90
2015,05,20,02,04,13.80
2015,05,20,02,05,13.80
2015,05,20,02,06,13.70
2015,05,20,02,07,13.70
2015,05,20,02,08,13.80
2015,05,20,02,09,13.80
2015,05,20,02,10,13.80
2015,05,20,02,11,13.90
2015,05,20,02,12,13.90
2015,05,20,02,13,13.90
2015,05,20,02,14,13.90
2015,05,20,02,15,13.90
2015,05,20,02,16,13.90
2015,05,20,02,17,13.90
2015,05,20,02,18,13.90
2015,05,20,02,19,14.00
2015,05,20,02,20,14.10
2015,05,20,02,21,14.10
2015,05,20,02,22,14.10
2015,05,20,02,23,14.10
2015,05,20,02,24,14.20
2015,05,20,02,25,14.20
2015,05,20,02,26,14.20
2015,05,20,02,27,14.30
2015,05,20,02,28,14.30
2015,05,20,02,29,14.40
2015,05,20,02,30,14.50
2015,05,20,02,31,14.60
2015,05,20,02,32,14.70
2015,05,20,02,33,14.70
2015,05,20,02,34,14.80
2015,05,20,02,35,14.90
2015,05,20,02,36,15.10
2015,05,20,02,37,15.20
2015,05,20,02,38,15.30
2015,05,20,02,39,15.30
2015,05,20,02,40,15.30
2015,05,20,02,41,15.30
2015,05,20,02,42,15.20
2015,05,20,02,43,15.20
2015,05,20,02,44,15.10
2015,05,20,02,45,15.10
2015,05,20,02,46,15.10
2015,05,20,02,47,15.10
2015,05,20,02,48,15.00
2015,05,20,02,49,15.10
2015,05,20,02,50,15.10
2015,05,20,02,51,15.10
2015,05,20,02,52,15.10
2015,05,20,02,53,15.20
2015,05,20,02,54,15.20
2015,05,20,02,55,15.30
2015,05,20,02,56,15.30
2015,05,20,02,57,15.30
2015,05,20,02,58,15.30
2015,05,20,02,59,15.40
2015,05,20,03,00,15.40
2015,05,20,03,01,15.40
2015,05,20,03,02,15.40
2015,05,20,03,03,15.30
2015,05,20,03,04,15.30
2015,05,20,03,05,15.30
2015,05,20,03,06,15.30
2015,05,20,03,07,15.30
2015,05,20,03,08,15.30
2015,05,20,03,09,15.20
2015,05,20,03,10,15.20
2015,05,20,03,11,15.20
2015,05,20,03,12,15.10
2015,05,20,03,13,15.00
2015,05,20,03,14,14.90
2015,05,20,03,15,14.90
2015,05,20,03,16,14.80
2015,05,20,03,17,14.70
2015,05,20,03,18,14.60
2015,05,20,03,19,14.50
2015,05,20,03,20,14.50
2015,05,20,03,21,14.40
2015,05,20,03,22,14.40
2015,05,20,03,23,14.50
2015,05,20,03,24,14.50
2015,05,20,03,25,14.50
2015,05,20,03,26,14.60
2015,05,20,03,27,14.60
2015,05,20,03,28,14.60
2015,05,20,03,29,14.60
2015,05,20,03,30,14.60
2015,05,20,03,31,14.60
2015,05,20,03,32,14.70
2015,05,20,03,33,14.80
2015,05,20,03,34,14.90
2015,05,20,03,35,15.00
2015,05,20,03,36,15.00
2015,05,20,03,37,15.10
2015,05,20,03,38,15.10
2015,05,20,03,39,15.10
2015,05,20,03,40,15.10
2015,05,20,03,41,15.10
2015,05,20,03,42,15.10
2015,05,20,03,43,15.10
2015,05,20,03,44,15.10
2015,05,20,03,45,15.10
2015,05,20,03,46,15.10
2015,05,20,03,47,15.10
2015,05,20,03,48,15.10
2015,05,20,03,49,15.20
2015,05,20,03,50,15.20
2015,05,20,03,51,15.20
2015,05,20,03,52,15.20
2015,05,20,03,53,15.20
2015,05,20,03,54,15.20
2015,05,20,03,55,15.10
2015,05,20,03,56,15.10
2015,05,20,03,57,15.10
2015,05,20,03,58,15.00
2015,05,20,03,59,15.00
2015,05,20,04,00,14.90
2015,05,20,04,01,14.90
2015,05,20,04,02,14.90
2015,05,20,04,03,15.00
2015,05,20,04,04,15.00
2015,05,20,04,05,14.90
2015,05,20,04,06,14.90
2015,05,20,04,07,14.80
2015,05,20,04,08,14.80
2015,05,20,04,09,14.60
2015,05,20,04,10,14.50
2015,05,20,04,11,14.40
2015,05,20,04,12,14.30
2015,05,20,04,13,14.20
2015,05,20,04,14,14.10
2015,05,20,04,15,13.90
2015,05,20,04,16,13.80
2015,05,20,04,17,13.60
2015,05,20,04,18,13.40
2015,05,20,04,19,13.30
2015,05,20,04,20,13.20
2015,05,20,04,21,13.00
2015,05,20,04,22,12.90
2015,05,20,04,23,12.80
2015,05,20,04,24,12.70
2015,05,20,04,25,12.60
2015,05,20,04,26,12.50
2015,05,20,04,27,12.40
2015,05,20,04,28,12.30
2015,05,20,04,29,12.20
2015,05,20,04,30,12.20
2015,05,20,04,31,12.10
2015,05,20,04,32,12.10
2015,05,20,04,33,12.00
2015,05,20,04,34,11.90
2015,05,20,04,35,11.90
2015,05,20,04,36,11.90
2015,05,20,04,37,11.80
2015,05,20,04,38,11.80
2015,05,20,04,39,11.70
2015,05,20,04,40,11.70
2015,05,20,04,41,11.70
2015,05,20,04,42,11.60
2015,05,20,04,43,11.60
2015,05,20,04,44,11.60
2015,05,20,04,45,11.50
2015,05,20,04,46,11.50
2015,05,20,04,47,11.40
2015,05,20,04,48,11.50
2015,05,20,04,49,11.50
2015,05,20,04,50,11.50
2015,05,20,04,51,11.40
2015,05,20,04,52,11.40
2015,05,20,04,53,11.40
2015,05,20,04,54,11.40
2015,05,20,04,55,11.30
2015,05,20,04,56,11.30
2015,05,20,04,57,11.30
2015,05,20,04,58,11.30
2015,05,20,04,59,11.20
2015,05,20,05,00,11.20
2015,05,20,05,01,11.20
2015,05,20,05,02,11.20
2015,05,20,05,03,11.20
2015,05,20,05,04,11.10
2015,05,20,05,05,11.10
2015,05,20,05,06,11.10
2015,05,20,05,07,11.10
2015,05,20,05,08,11.00
2015,05,20,05,09,11.00
2015,05,20,05,10,11.00
2015,05,20,05,11,10.90
2015,05,20,05,12,11.00
2015,05,20,05,13,11.10
2015,05,20,05,14,11.10
2015,05,20,05,15,11.20
2015,05,20,05,16,11.10
2015,05,20,05,17,11.10
2015,05,20,05,18,11.10
2015,05,20,05,19,11.00
2015,05,20,05,20,11.00
2015,05,20,05,21,10.90
2015,05,20,05,22,10.90
2015,05,20,05,23,10.90
2015,05,20,05,24,10.90
2015,05,20,05,25,10.90
2015,05,20,05,26,10.90
2015,05,20,05,27,10.90
2015,05,20,05,28,10.90
2015,05,20,05,29,10.90
2015,05,20,05,30,10.90
2015,05,20,05,31,10.90
2015,05,20,05,32,10.80
2015,05,20,05,33,10.80
2015,05,20,05,34,10.80
2015,05,20,05,35,10.80
2015,05,20,05,36,10.80
2015,05,20,05,37,10.80
2015,05,20,05,38,10.80
2015,05,20,05,39,10.80
2015,05,20,05,40,10.80
2015,05,20,05,41,10.80
2015,05,20,05,42,10.80
2015,05,20,05,43,10.80
2015,05,20,05,44,10.80
2015,05,20,05,45,10.80
2015,05,20,05,46,10.80
2015,05,20,05,47,10.80
2015,05,20,05,48,10.80
2015,05,20,05,49,10.80
2015,05,20,05,50,10.80
2015,05,20,05,51,10.80
2015,05,20,05,52,10.80
2015,05,20,05,53,10.80
2015,05,20,05,54,10.80
2015,05,20,05,55,10.80
2015,05,20,05,56,10.80
2015,05,20,05,57,10.80
2015,05,20,05,58,10.90
2015,05,20,05,59,10.90
2015,05,20,06,00,10.90
2015,05,20,06,01,10.90
2015,05,20,06,02,10.90
2015,05,20,06,03,11.00
2015,05,20,06,04,11.00
2015,05,20,06,05,11.10
2015,05,20,06,06,11.10
2015,05,20,06,07,11.20
2015,05,20,06,08,11.30
2015,05,20,06,09,11.30
2015,05,20,06,10,11.40
2015,05,20,06,11,11.50
2015,05,20,06,12,11.50
2015,05,20,06,13,11.70
2015,05,20,06,14,11.70
2015,05,20,06,15,11.80
2015,05,20,06,16,11.90
2015,05,20,06,17,12.00
2015,05,20,06,18,12.10
2015,05,20,06,19,12.20
2015,05,20,06,20,12.30
2015,05,20,06,21,12.40
2015,05,20,06,22,12.50
2015,05,20,06,23,12.60
2015,05,20,06,24,12.70
2015,05,20,06,25,12.70
2015,05,20,06,26,12.80
2015,05,20,06,27,12.80
2015,05,20,06,28,12.80
2015,05,20,06,29,12.90
2015,05,20,06,30,12.90
2015,05,20,06,31,13.00
2015,05,20,06,32,13.10
2015,05,20,06,33,13.10
2015,05,20,06,34,13.20
2015,05,20,06,35,13.20
2015,05,20,06,36,13.30
2015,05,20,06,37,13.30
2015,05,20,06,38,13.40
2015,05,20,06,39,13.40
2015,05,20,06,40,13.50
2015,05,20,06,41,13.50
2015,05,20,06,42,13.60
2015,05,20,06,43,13.70
2015,05,20,06,44,13.70
2015,05,20,06,45,13.80
2015,05,20,06,46,13.80
2015,05,20,06,47,13.90
2015,05,20,06,48,14.00
2015,05,20,06,49,14.00
2015,05,20,06,50,14.10
2015,05,20,06,51,14.10
2015,05,20,06,52,14.20
2015,05,20,06,53,14.20
2015,05,20,06,54,14.30
2015,05,20,06,55,14.40
2015,05,20,06,56,14.40
2015,05,20,06,57,14.50
2015,05,20,06,58,14.50
2015,05,20,06,59,14.60
2015,05,20,07,00,14.60
2015,05,20,07,01,14.70
2015,05,20,07,02,14.70
2015,05,20,07,03,14.70
2015,05,20,07,04,14.80
2015,05,20,07,05,14.80
2015,05,20,07,06,14.80
2015,05,20,07,07,14.80
2015,05,20,07,08,14.90
2015,05,20,07,09,14.90
2015,05,20,07,10,14.90
2015,05,20,07,11,14.90
2015,05,20,07,12,15.00
2015,05,20,07,13,15.00
2015,05,20,07,14,14.90
2015,05,20,07,15,14.90
2015,05,20,07,16,14.90
2015,05,20,07,17,14.90
2015,05,20,07,18,15.00
2015,05,20,07,19,14.90
2015,05,20,07,20,15.00
2015,05,20,07,21,14.90
2015,05,20,07,22,15.00
2015,05,20,07,23,15.00
2015,05,20,07,24,15.10
2015,05,20,07,25,15.10
2015,05,20,07,26,15.20
2015,05,20,07,27,15.20
2015,05,20,07,28,15.20
2015,05,20,07,29,15.20
2015,05,20,07,30,15.20
2015,05,20,07,31,15.20
2015,05,20,07,32,15.30
2015,05,20,07,33,15.30
2015,05,20,07,34,15.30
2015,05,20,07,35,15.30
2015,05,20,07,36,15.30
2015,05,20,07,37,15.30
2015,05,20,07,38,15.30
2015,05,20,07,39,15.30
2015,05,20,07,40,15.30
2015,05,20,07,41,15.30
2015,05,20,07,42,15.30
2015,05,20,07,43,15.30
2015,05,20,07,44,15.20
2015,05,20,07,45,15.30
2015,05,20,07,46,15.30
2015,05,20,07,47,15.30
2015,05,20,07,48,15.20
2015,05,20,07,49,15.20
2015,05,20,07,50,15.20
2015,05,20,07,51,15.20
2015,05,20,07,52,15.20
2015,05,20,07,53,15.20
2015,05,20,07,54,15.20
2015,05,20,07,55,15.20
2015,05,20,07,56,15.20
2015,05,20,07,57,15.10
2015,05,20,07,58,15.10
2015,05,20,07,59,15.10
2015,05,20,08,00,15.10
2015,05,20,08,01,15.20
2015,05,20,08,02,15.20
2015,05,20,08,03,15.20
2015,05,20,08,04,15.30
2015,05,20,08,05,15.30
2015,05,20,08,06,15.40
2015,05,20,08,07,15.40
2015,05,20,08,08,15.40
2015,05,20,08,09,15.40
2015,05,20,08,10,15.40
2015,05,20,08,11,15.40
2015,05,20,08,12,15.40
2015,05,20,08,13,15.40
2015,05,20,08,14,15.40
2015,05,20,08,15,15.40
2015,05,20,08,16,15.40
2015,05,20,08,17,15.40
2015,05,20,08,18,15.50
2015,05,20,08,19,15.50
2015,05,20,08,20,15.50
2015,05,20,08,21,15.50
2015,05,20,08,22,15.60
2015,05,20,08,23,15.60
2015,05,20,08,24,15.60
2015,05,20,08,25,15.60
2015,05,20,08,26,15.60
2015,05,20,08,27,15.60
2015,05,20,08,28,15.70
2015,05,20,08,29,15.70
2015,05,20,08,30,15.60
2015,05,20,08,31,15.60
2015,05,20,08,32,15.60
2015,05,20,08,33,15.60
2015,05,20,08,34,15.50
2015,05,20,08,35,15.50
2015,05,20,08,36,15.60
2015,05,20,08,37,15.60
2015,05,20,08,38,15.60
2015,05,20,08,39,15.60
2015,05,20,08,40,15.50
2015,05,20,08,41,15.50
2015,05,20,08,42,15.40
2015,05,20,08,43,15.40
2015,05,20,08,44,15.40
2015,05,20,08,45,15.40
2015,05,20,08,46,15.40
2015,05,20,08,47,15.40
2015,05,20,08,48,15.40
2015,05,20,08,49,15.40
2015,05,20,08,50,15.40
2015,05,20,08,51,15.40
2015,05,20,08,52,15.50
2015,05,20,08,53,15.50
2015,05,20,08,54,15.60
2015,05,20,08,55,15.70
2015,05,20,08,56,15.60
2015,05,20,08,57,15.60
2015,05,20,08,58,15.70
2015,05,20,08,59,15.60
2015,05,20,09,00,15.60
2015,05,20,09,01,15.70
2015,05,20,09,02,15.70
2015,05,20,09,03,15.70
2015,05,20,09,04,15.70
2015,05,20,09,05,15.80
2015,05,20,09,06,15.80
2015,05,20,09,07,15.90
2015,05,20,09,08,15.90
2015,05,20,09,09,16.00
2015,05,20,09,10,16.10
2015,05,20,09,11,16.00
2015,05,20,09,12,16.00
2015,05,20,09,13,15.90
2015,05,20,09,14,15.90
2015,05,20,09,15,15.90
2015,05,20,09,16,15.80
2015,05,20,09,17,15.80
2015,05,20,09,18,15.70
2015,05,20,09,19,15.60
2015,05,20,09,20,15.60
2015,05,20,09,21,15.60
2015,05,20,09,22,15.70
2015,05,20,09,23,15.60
2015,05,20,09,24,15.60
2015,05,20,09,25,15.60
2015,05,20,09,26,15.70
2015,05,20,09,27,15.70
2015,05,20,09,28,15.80
2015,05,20,09,29,15.80
2015,05,20,09,30,15.90
2015,05,20,09,31,15.90
2015,05,20,09,32,15.90
2015,05,20,09,33,15.80
2015,05,20,09,34,15.90
2015,05,20,09,35,15.80
2015,05,20,09,36,15.70
2015,05,20,09,37,15.70
2015,05,20,09,38,15.60
2015,05,20,09,39,15.60
2015,05,20,09,40,15.40
2015,05,20,09,41,15.30
2015,05,20,09,42,15.20
2015,05,20,09,43,15.20
2015,05,20,09,44,15.20
2015,05,20,09,45,15.20
2015,05,20,09,46,15.10
2015,05,20,09,47,15.10
2015,05,20,09,48,15.10
2015,05,20,09,49,15.10
2015,05,20,09,50,15.10
2015,05,20,09,51,15.10
2015,05,20,09,52,15.10
2015,05,20,09,53,15.00
2015,05,20,09,54,15.00
2015,05,20,09,55,15.00
2015,05,20,09,56,15.10
2015,05,20,09,57,15.20
2015,05,20,09,58,15.10
2015,05,20,09,59,15.10
2015,05,20,10,00,15.00
2015,05,20,10,01,14.90
2015,05,20,10,02,14.90
2015,05,20,10,03,14.90
2015,05,20,10,04,14.90
2015,05,20,10,05,14.90
2015,05,20,10,06,14.90
2015,05,20,10,07,14.90
2015,05,20,10,08,14.90
2015,05,20,10,09,14.80
2015,05,20,10,10,14.80
2015,05,20,10,11,14.90
2015,05,20,10,12,15.00
2015,05,20,10,13,15.10
2015,05,20,10,14,15.20
2015,05,20,10,15,15.30
2015,05,20,10,16,15.30
2015,05,20,10,17,15.40
2015,05,20,10,18,15.40
2015,05,20,10,19,15.40
2015,05,20,10,20,15.50
2015,05,20,10,21,15.50
2015,05,20,10,22,15.50
2015,05,20,10,23,15.50
2015,05,20,10,24,15.40
2015,05,20,10,25,15.40
2015,05,20,10,26,15.40
2015,05,20,10,27,15.40
2015,05,20,10,28,15.40
2015,05,20,10,29,15.40
2015,05,20,10,30,15.50
2015,05,20,10,31,15.50
2015,05,20,10,32,15.50
2015,05,20,10,33,15.60
2015,05,20,10,34,15.50
2015,05,20,10,35,15.40
2015,05,20,10,36,15.50
2015,05,20,10,37,15.50
2015,05,20,10,38,15.50
2015,05,20,10,39,15.40
2015,05,20,10,40,15.40
2015,05,20,10,41,15.40
2015,05,20,10,42,15.40
2015,05,20,10,43,15.40
2015,05,20,10,44,15.40
2015,05,20,10,45,15.40
2015,05,20,10,46,15.40
2015,05,20,10,47,15.50
2015,05,20,10,48,15.50
2015,05,20,10,49,15.50
2015,05,20,10,50,15.60
2015,05,20,10,51,15.60
2015,05,20,10,52,15.60
2015,05,20,10,53,15.70
2015,05,20,10,54,15.70
2015,05,20,10,55,15.70
2015,05,20,10,56,15.70
2015,05,20,10,57,15.70
2015,05,20,10,58,15.70
2015,05,20,10,59,15.60
2015,05,20,11,00,15.60
2015,05,20,11,01,15.60
2015,05,20,11,02,15.70
2015,05,20,11,03,15.70
2015,05,20,11,04,15.80
2015,05,20,11,05,15.90
2015,05,20,11,06,15.90
2015,05,20,11,07,15.90
2015,05,20,11,08,15.90
2015,05,20,11,09,15.90
2015,05,20,11,10,15.80
2015,05,20,11,11,15.80
2015,05,20,11,12,15.80
2015,05,20,11,13,15.80
2015,05,20,11,14,15.80
2015,05,20,11,15,15.80
2015,05,20,11,16,15.80
2015,05,20,11,17,15.80
2015,05,20,11,18,15.80
2015,05,20,11,19,15.90
2015,05,20,11,20,16.00
2015,05,20,11,21,16.00
2015,05,20,11,22,16.00
2015,05,20,11,23,16.00
2015,05,20,11,24,15.90
2015,05,20,11,25,16.00
2015,05,20,11,26,16.00
2015,05,20,11,27,16.00
2015,05,20,11,28,16.00
2015,05,20,11,29,16.10
2015,05,20,11,30,16.10
2015,05,20,11,31,16.20
2015,05,20,11,32,16.20
2015,05,20,11,33,16.20
2015,05,20,11,34,16.10
2015,05,20,11,35,15.90
2015,05,20,11,36,15.80
2015,05,20,11,37,15.70
2015,05,20,11,38,15.60
2015,05,20,11,39,15.60
2015,05,20,11,40,15.60
2015,05,20,11,41,15.70
2015,05,20,11,42,15.70
2015,05,20,11,43,15.80
2015,05,20,11,44,15.80
2015,05,20,11,45,15.80
2015,05,20,11,46,15.90
2015,05,20,11,47,15.90
2015,05,20,11,48,15.90
2015,05,20,11,49,16.00
2015,05,20,11,50,16.00
2015,05,20,11,51,16.00
2015,05,20,11,52,15.90
2015,05,20,11,53,15.90
2015,05,20,11,54,15.80
2015,05,20,11,55,15.80
2015,05,20,11,56,15.80
2015,05,20,11,57,15.80
2015,05,20,11,58,15.90
2015,05,20,11,59,15.90
2015,05,20,12,00,15.90
2015,05,20,12,01,15.80
2015,05,20,12,02,15.90
2015,05,20,12,03,15.90
2015,05,20,12,04,15.90
2015,05,20,12,05,16.00
2015,05,20,12,06,16.00
2015,05,20,12,07,16.00
2015,05,20,12,08,16.00
2015,05,20,12,09,16.10
2015,05,20,12,10,16.10
2015,05,20,12,11,16.10
2015,05,20,12,12,16.10
2015,05,20,12,13,16.20
2015,05,20,12,14,16.20
2015,05,20,12,15,16.20
2015,05,20,12,16,16.20
2015,05,20,12,17,16.20
2015,05,20,12,18,16.20
2015,05,20,12,19,16.20
2015,05,20,12,20,16.20
2015,05,20,12,21,16.10
2015,05,20,12,22,16.20
2015,05,20,12,23,16.20
2015,05,20,12,24,16.20
2015,05,20,12,25,16.30
2015,05,20,12,26,16.30
2015,05,20,12,27,16.30
2015,05,20,12,28,16.30
2015,05,20,12,29,16.30
2015,05,20,12,30,16.30
2015,05,20,12,31,16.30
2015,05,20,12,32,16.30
2015,05,20,12,33,16.40
2015,05,20,12,34,16.40
2015,05,20,12,35,16.40
2015,05,20,12,36,16.40
2015,05,20,12,37,16.50
2015,05,20,12,38,16.50
2015,05,20,12,39,16.40
2015,05,20,12,40,16.50
2015,05,20,12,41,16.50
2015,05,20,12,42,16.40
2015,05,20,12,43,16.40
2015,05,20,12,44,16.50
2015,05,20,12,45,16.50
2015,05,20,12,46,16.60
2015,05,20,12,47,16.60
2015,05,20,12,48,16.60
2015,05,20,12,49,16.60
2015,05,20,12,50,16.60
2015,05,20,12,51,16.60
2015,05,20,12,52,16.60
2015,05,20,12,53,16.70
2015,05,20,12,54,16.70
2015,05,20,12,55,16.70
2015,05,20,12,56,16.70
2015,05,20,12,57,16.80
2015,05,20,12,58,16.80
2015,05,20,12,59,16.90
2015,05,20,13,00,16.90
2015,05,20,13,01,17.00
2015,05,20,13,02,17.10
2015,05,20,13,03,17.20
2015,05,20,13,04,17.20
2015,05,20,13,05,17.20
2015,05,20,13,06,17.20
2015,05,20,13,07,17.20
2015,05,20,13,08,17.30
2015,05,20,13,09,17.30
2015,05,20,13,10,17.30
2015,05,20,13,11,17.40
2015,05,20,13,12,17.50
2015,05,20,13,13,17.50
2015,05,20,13,14,17.50
2015,05,20,13,15,17.60
2015,05,20,13,16,17.60
2015,05,20,13,17,17.60
2015,05,20,13,18,17.70
2015,05,20,13,19,17.70
2015,05,20,13,20,17.70
2015,05,20,13,21,17.60
2015,05,20,13,22,17.70
2015,05,20,13,23,17.70
2015,05,20,13,24,17.70
2015,05,20,13,25,17.80
2015,05,20,13,26,17.90
2015,05,20,13,27,17.90
2015,05,20,13,28,17.90
2015,05,20,13,29,17.90
2015,05,20,13,30,17.90
2015,05,20,13,31,17.90
2015,05,20,13,32,17.90
2015,05,20,13,33,17.90
2015,05,20,13,34,18.00
2015,05,20,13,35,18.10
2015,05,20,13,36,18.10
2015,05,20,13,37,18.20
2015,05,20,13,38,18.20
2015,05,20,13,39,18.30
2015,05,20,13,40,18.40
2015,05,20,13,41,18.50
2015,05,20,13,42,18.60
2015,05,20,13,43,18.70
2015,05,20,13,44,18.70
2015,05,20,13,45,18.70
2015,05,20,13,46,18.70
2015,05,20,13,47,18.70
2015,05,20,13,48,18.70
2015,05,20,13,49,18.70
2015,05,20,13,50,18.80
2015,05,20,13,51,18.80
2015,05,20,13,52,18.90
2015,05,20,13,53,19.00
2015,05,20,13,54,19.00
2015,05,20,13,55,19.10
2015,05,20,13,56,19.10
2015,05,20,13,57,19.20
2015,05,20,13,58,19.20
2015,05,20,13,59,19.30
2015,05,20,14,00,19.40
2015,05,20,14,01,19.50
2015,05,20,14,02,19.60
2015,05,20,14,03,19.80
2015,05,20,14,04,19.90
2015,05,20,14,05,20.00
2015,05,20,14,06,20.00
2015,05,20,14,07,20.10
2015,05,20,14,08,20.10
2015,05,20,14,09,20.20
2015,05,20,14,10,20.20
2015,05,20,14,11,20.20
2015,05,20,14,12,20.20
2015,05,20,14,13,20.20
2015,05,20,14,14,20.20
2015,05,20,14,15,20.20
2015,05,20,14,16,20.20
2015,05,20,14,17,20.20
2015,05,20,14,18,20.30
2015,05,20,14,19,20.40
2015,05,20,14,20,20.40
2015,05,20,14,21,20.50
2015,05,20,14,22,20.60
2015,05,20,14,23,20.60
2015,05,20,14,24,20.70
2015,05,20,14,25,20.80
2015,05,20,14,26,20.80
2015,05,20,14,27,20.80
2015,05,20,14,28,20.80
2015,05,20,14,29,20.80
2015,05,20,14,30,20.80
2015,05,20,14,31,20.80
2015,05,20,14,32,20.80
2015,05,20,14,33,20.70
2015,05,20,14,34,20.70
2015,05,20,14,35,20.80
2015,05,20,14,36,20.90
2015,05,20,14,37,21.00
2015,05,20,14,38,21.00
2015,05,20,14,39,21.10
2015,05,20,14,40,21.00
2015,05,20,14,41,20.90
2015,05,20,14,42,20.80
2015,05,20,14,43,20.70
2015,05,20,14,44,20.60
2015,05,20,14,45,20.50
2015,05,20,14,46,20.40
2015,05,20,14,47,20.40
2015,05,20,14,48,20.30
2015,05,20,14,49,20.40
2015,05,20,14,50,20.40
2015,05,20,14,51,20.50
2015,05,20,14,52,20.60
2015,05,20,14,53,20.70
2015,05,20,14,54,20.70
2015,05,20,14,55,20.60
2015,05,20,14,56,20.60
2015,05,20,14,57,20.70
2015,05,20,14,58,20.80
2015,05,20,14,59,20.90
2015,05,20,15,00,21.00
2015,05,20,15,01,21.10
2015,05,20,15,02,21.10
2015,05,20,15,03,21.20
2015,05,20,15,04,21.20
2015,05,20,15,05,21.10
2015,05,20,15,06,21.10
2015,05,20,15,07,21.10
2015,05,20,15,08,21.10
2015,05,20,15,09,21.20
2015,05,20,15,10,21.20
2015,05,20,15,11,21.30
2015,05,20,15,12,21.30
2015,05,20,15,13,21.30
2015,05,20,15,14,21.40
2015,05,20,15,15,21.40
2015,05,20,15,16,21.40
2015,05,20,15,17,21.40
2015,05,20,15,18,21.40
2015,05,20,15,19,21.40
2015,05,20,15,20,21.50
2015,05,20,15,21,21.50
2015,05,20,15,22,21.60
2015,05,20,15,23,21.70
2015,05,20,15,24,21.70
2015,05,20,15,25,21.70
2015,05,20,15,26,21.70
2015,05,20,15,27,21.70
2015,05,20,15,28,21.70
2015,05,20,15,29,21.70
2015,05,20,15,30,21.60
2015,05,20,15,31,21.60
2015,05,20,15,32,21.60
2015,05,20,15,33,21.70
2015,05,20,15,34,21.70
2015,05,20,15,35,21.70
2015,05,20,15,36,21.80
2015,05,20,15,37,21.80
2015,05,20,15,38,21.90
2015,05,20,15,39,21.80
2015,05,20,15,40,21.80
2015,05,20,15,41,21.70
2015,05,20,15,42,21.70
2015,05,20,15,43,21.70
2015,05,20,15,44,21.80
2015,05,20,15,45,21.80
2015,05,20,15,46,21.90
2015,05,20,15,47,21.90
2015,05,20,15,48,21.90
2015,05,20,15,49,21.90
2015,05,20,15,50,21.90
2015,05,20,15,51,21.90
2015,05,20,15,52,21.90
2015,05,20,15,53,21.90
2015,05,20,15,54,21.80
2015,05,20,15,55,21.80
2015,05,20,15,56,21.90
2015,05,20,15,57,21.90
2015,05,20,15,58,21.90
2015,05,20,15,59,21.90
2015,05,20,16,00,21.90
2015,05,20,16,01,21.90
2015,05,20,16,02,21.90
2015,05,20,16,03,21.90
2015,05,20,16,04,21.90
2015,05,20,16,05,21.80
2015,05,20,16,06,21.90
2015,05,20,16,07,22.00
2015,05,20,16,08,22.00
2015,05,20,16,09,22.00
2015,05,20,16,10,22.00
2015,05,20,16,11,22.00
2015,05,20,16,12,21.90
2015,05,20,16,13,21.80
2015,05,20,16,14,21.80
2015,05,20,16,15,21.80
2015,05,20,16,16,21.80
2015,05,20,16,17,21.90
2015,05,20,16,18,21.90
2015,05,20,16,19,21.90
2015,05,20,16,20,21.90
2015,05,20,16,21,21.90
2015,05,20,16,22,21.90
2015,05,20,16,23,22.00
2015,05,20,16,24,22.00
2015,05,20,16,25,22.10
2015,05,20,16,26,22.10
2015,05,20,16,27,22.20
2015,05,20,16,28,22.20
2015,05,20,16,29,22.30
2015,05,20,16,30,22.30
2015,05,20,16,31,22.30
2015,05,20,16,32,22.30
2015,05,20,16,33,22.40
2015,05,20,16,34,22.50
2015,05,20,16,35,22.50
2015,05,20,16,36,22.60
2015,05,20,16,37,22.70
2015,05,20,16,38,22.80
2015,05,20,16,39,22.80
2015,05,20,16,40,22.90
2015,05,20,16,41,23.10
2015,05,20,16,42,23.20
2015,05,20,16,43,23.20
2015,05,20,16,44,23.10
2015,05,20,16,45,23.10
2015,05,20,16,46,23.10
2015,05,20,16,47,23.10
2015,05,20,16,48,23.10
2015,05,20,16,49,23.10
2015,05,20,16,50,23.20
2015,05,20,16,51,23.20
2015,05,20,16,52,23.30
2015,05,20,16,53,23.40
2015,05,20,16,54,23.40
2015,05,20,16,55,23.50
2015,05,20,16,56,23.70
2015,05,20,16,57,23.80
2015,05,20,16,58,23.90
2015,05,20,16,59,24.00
2015,05,20,17,00,24.10
2015,05,20,17,01,24.10
2015,05,20,17,02,24.10
2015,05,20,17,03,24.20
2015,05,20,17,04,24.20
2015,05,20,17,05,24.20
2015,05,20,17,06,24.20
2015,05,20,17,07,24.30
2015,05,20,17,08,24.30
2015,05,20,17,09,24.30
2015,05,20,17,10,24.30
2015,05,20,17,11,24.40
2015,05,20,17,12,24.40
2015,05,20,17,13,24.40
2015,05,20,17,14,24.40
2015,05,20,17,15,24.40
2015,05,20,17,16,24.40
2015,05,20,17,17,24.30
2015,05,20,17,18,24.30
2015,05,20,17,19,24.20